Švenčionėlių

Lithuania     55˚09′38″N   26˚00′09″E
temp.,
°C
wind,
m/s
gust,
m/s
humid.,
%
clouds,
%
prec.,
mm/h
press.,
hPa
HPBL,
m
28 november, sat
sat2823:00nnw368591 0.0 1015607
02:00−1˚nnw369288 0.1 1016441
05:00−1˚n378699 0.0 1017558
08:00−1˚nnw369598 0.3 1018344
11:00nnw3796100 0.7 1019369
14:00+1˚nne3796100 1.4 1019380
17:00nne4897100 0.5 1020424
20:00e5991100 1.1 1021520
29 november, sun
sun2923:00−2˚ene388840 0.0 1022330
02:00ene489566 0.1 1023485
05:00ene4893100 0.4 1022489
08:00ne489096 0.5 1022539
11:00ne4788100 0.0 1022585
14:00nne4791100 0.3 1021544
17:00−1˚n3695100 0.6 1020466
20:00−1˚nne259698 0.9 1021336
30 november, mon
mon3023:00−2˚nne139798 0.4 1021179
02:00−2˚ne119890 0.5 102133
05:00−2˚se009880 0.1 102122
08:00−2˚ssw119882 0.1 102222
11:00−1˚sw129178 0.0 1023275
14:00wsw248485 0.1 1023591
17:00−1˚sw3586100 0.1 1023507
20:00−2˚sw379397 0.2 1024446
1 december, tue
tue123:00−2˚sw479393 0.1 1024531
02:00−1˚sw478797 0.2 1024713
05:00−1˚ssw4788100 0.1 1025557
08:00−3˚ssw389378 0.1 1026319
11:00−2˚ssw47835 0.0 1026481
14:00−1˚ssw368034 0.0 1027617
17:00−3˚sse268992 0.0 1028208
20:00−3˚sse378895 0.0 1029274
2 december, wed
wed223:00−3˚s369189 0.0 1030274
02:00−4˚sse269385 0.0 1030237
05:00−4˚sse259355 0.0 1030193
08:00−4˚sse359348 0.0 1030191
11:00−3˚sse358632 0.0 1030299
14:00−2˚sse258341 0.0 1029345
17:00−4˚se249180 0.0 1028120
20:00−4˚se249068 0.0 1028134